[[{"header":{"parameterUnit":"m.s-1","parameterCategory":1,"la1":30.2991,"la2":30.254,"lo1":-89.0895,"lo2":-89.0444,"dy":0.0017,"dx":0.0017,"nx":28,"ny":28,"refTime":"2024-02-06T09:00:00:Z","depth":0,"parameterNumber":2,"parameterNumberName":"U-component_of_WINDS"},"data":[0,0,0,0,0,0,0,0,0,0,0,0,0,0,0,0,0,0,0,0,0,0,0,0,0,0,0,0,0,0,0,0,0,0,0,0,0,0,0,0,0,0,0,0,0,0,0,0,0,0,0,0,0,0,0,0,0,0,-1.0101,-1.0102,0,-1.0182,-1.0183,-1.0184,-1.0196,-1.0195,-1.0194,-1.0194,-1.0278,-1.0281,-1.0284,0,0,0,0,0,0,0,0,0,0,0,0,0,-0.9959,-0.9961,-1.0101,-1.0102,-1.0103,-1.0182,-1.0183,-1.0184,-1.0196,-1.0195,-1.0194,-1.0193,-1.0277,-1.0281,-1.0284,0,0,0,0,0,0,0,0,0,0,0,0,0,-1.0028,-0.9962,-1.0101,-1.0119,-1.0121,-1.0182,-1.0183,-1.0185,-1.0196,-1.0195,-1.0194,-1.0193,-1.0276,-1.028,-1.0285,-1.0334,0,0,-1.0298,-1.03,0,0,0,0,0,0,0,0,-1.0024,-1.0033,-1.0115,-1.0118,-1.012,-1.0178,-1.0164,-1.0235,-1.0196,-1.0168,-1.0194,-1.0192,-1.0246,-1.0252,-1.027,-1.0338,-1.0342,-1.0298,-1.0301,-1.0303,-1.0304,0,0,0,0,0,0,0,-1.0019,-1.003,-1.0133,-1.0116,-1.012,-1.0123,-1.0132,-1.0177,-1.0212,-1.017,-1.0171,-1.0181,-1.0247,-1.0266,-1.0272,-1.0343,-1.0298,-1.0302,-1.0305,-1.0307,-1.0455,-1.0457,0,0,0,0,0,0,-1.0011,-1.0026,-1.0131,-1.0136,-1.0068,-1.0126,-1.0136,-1.0161,-1.0212,-1.0218,-1.0181,-1.0181,-1.0259,-1.0267,-1.0275,-1.0337,-1.0303,-1.0307,-1.031,-1.0454,-1.0456,-1.0457,0,0,0,0,0,0,-1.0008,-1.002,-1.0128,-1.0081,-1.0095,-1.013,-1.0157,-1.0163,-1.0182,-1.022,-1.0226,-1.0194,-1.0258,-1.0269,-1.0319,-1.034,-1.0309,-1.0313,-1.0452,-1.0454,-1.0456,-1.046,0,0,0,0,0,0,-1.0004,-1.0019,-1.0038,-1.0081,-1.0097,-1.017,-1.0159,-1.0165,-1.0189,-1.0189,-1.0234,-1.024,-1.0258,-1.0313,-1.0324,-1.0345,-1.0316,-1.0451,-1.0453,-1.0456,-1.0458,-1.0461,-1.0464,0,0,0,0,0,-0.9999,-1.0036,-1.0039,-1.0052,-1.0122,-1.0171,-1.018,-1.02,-1.0191,-1.021,-1.0235,-1.0239,-1.0335,-1.0318,-1.033,-1.0353,-1.045,-1.0453,-1.0455,-1.0456,-1.0461,-1.0464,0,0,0,0,0,0,-0.9995,-1.0042,-1.0046,-1.0098,-1.013,-1.0173,-1.0198,-1.0204,-1.024,-1.0238,-1.0262,-1.0272,-1.0321,-1.0342,-1.0321,-1.0404,-1.0392,-1.0397,-1.0388,-1.0393,-1.0396,-1.039,-1.032,0,0,0,0,0,-1.0,-1.0035,-1.0075,-1.0118,-1.0133,-1.0163,-1.0185,-1.0197,-1.0232,-1.0246,-1.0274,-1.0308,-1.0346,-1.037,-1.0407,-1.0461,-1.0471,-1.0483,-1.0486,-1.0489,-1.0494,-1.0523,-1.0529,-1.0467,-1.0467,-1.0467,0,0,-1.0011,-1.0041,-1.0062,-1.0118,-1.0144,-1.0181,-1.0174,-1.0213,-1.0241,-1.0252,-1.0301,-1.0323,-1.0362,-1.0414,-1.0438,-1.0433,-1.0513,-1.0493,-1.0494,-1.0498,-1.0527,-1.0533,-1.0538,-1.0469,-1.0468,-1.0468,0,0,-1.005,-1.0077,-1.0115,-1.0141,-1.0181,-1.02,-1.0209,-1.0251,-1.0266,-1.0315,-1.0324,-1.0357,-1.0422,-1.045,-1.0472,-1.0521,-1.0527,-1.0533,-1.0551,-1.0579,-1.0584,-1.0589,-1.0607,-1.0613,-1.0537,-1.0537,-1.0537,0,-1.0059,-1.0115,-1.0134,-1.0173,-1.0197,-1.0207,-1.0247,-1.0271,-1.0321,-1.0338,-1.0332,-1.0413,-1.044,-1.0499,-1.0511,-1.0529,-1.054,-1.0528,-1.0582,-1.0587,-1.0591,-1.0608,-1.0615,-1.0538,-1.0538,-1.0538,-1.0538,0,-1.0124,-1.0162,-1.0188,-1.0236,-1.0263,-1.0301,-1.0327,-1.0352,-1.0362,-1.0382,-1.0432,-1.0465,-1.0509,-1.0524,-1.0534,-1.0584,-1.0579,-1.0577,-1.0566,-1.0597,-1.0614,-1.0621,-1.0539,-1.0538,-1.0538,-1.0538,0,0,-1.0163,-1.022,-1.023,-1.0251,-1.0296,-1.0326,-1.0365,-1.0408,-1.0429,-1.0463,-1.0497,-1.0551,-1.0549,-1.0575,-1.0588,-1.0614,-1.0651,-1.0608,-1.061,-1.0615,-1.0708,-1.0709,-1.0717,-1.0654,-1.0655,-1.0656,-1.0705,0,-1.0208,-1.0278,-1.0296,-1.0356,-1.0391,-1.0402,-1.0436,-1.0467,-1.0487,-1.052,-1.0542,-1.0581,-1.0575,-1.0591,-1.0616,-1.0641,-1.067,-1.0637,-1.0686,-1.0688,-1.0676,-1.0725,-1.0727,-1.0771,-1.0711,-1.0712,-1.0713,0,-1.0269,-1.0304,-1.0367,-1.0406,-1.0422,-1.0452,-1.0493,-1.0524,-1.056,-1.0573,-1.0601,-1.0612,-1.0654,-1.0639,-1.0697,-1.0675,-1.0696,-1.0711,-1.0713,-1.0719,-1.0702,-1.0732,-1.0785,-1.0792,-1.0723,-1.0723,-1.0722,0,-1.0292,-1.0354,-1.04,-1.0418,-1.0466,-1.0487,-1.0508,-1.0542,-1.0566,-1.0602,-1.0618,-1.0658,-1.068,-1.071,-1.0732,-1.0719,-1.0788,-1.0776,-1.08,-1.08,-1.0815,-1.0813,-1.0872,-1.0827,-1.0827,-1.0827,-1.0827,0,-1.034,-1.0378,-1.0411,-1.0439,-1.0482,-1.0503,-1.0545,-1.0566,-1.0597,-1.063,-1.0641,-1.0672,-1.0698,-1.0733,-1.075,-1.0795,-1.0805,-1.0817,-1.0821,-1.0816,-1.0814,-1.083,-1.0828,-1.0829,-1.0829,-1.0828,-1.0828,0,-1.0372,-1.0396,-1.0446,-1.0487,-1.0498,-1.0528,-1.0563,-1.0591,-1.0611,-1.0652,-1.0663,-1.0695,-1.0735,-1.076,-1.0812,-1.0823,-1.0874,-1.0876,-1.0861,-1.0863,-1.0886,-1.0884,-1.0957,-1.0968,-1.0916,-1.0917,-1.0917,0,-1.0402,-1.0431,-1.0475,-1.0497,-1.0518,-1.0554,-1.0579,-1.0601,-1.0626,-1.0669,-1.0691,-1.0733,-1.0767,-1.0832,-1.086,-1.09,-1.0904,-1.0927,-1.091,-1.0904,-1.0904,-1.0902,-1.0906,-1.093,-1.093,-1.093,-1.0931,0,-1.0451,-1.0461,-1.0496,-1.0535,-1.0564,-1.0595,-1.0627,-1.0645,-1.0672,-1.07,-1.0742,-1.0768,-1.0821,-1.0862,-1.0904,-1.0926,-1.0933,-1.0936,-1.0944,-1.0939,-1.0929,-1.0935,-1.0869,-1.0934,-1.0934,-1.0934,-1.0933,-1.0933,-1.0483,-1.051,-1.0544,-1.0583,-1.0609,-1.0638,-1.0666,-1.0689,-1.0724,-1.0769,-1.0779,-1.0823,-1.0858,-1.0915,-1.0938,-1.0973,-1.0969,-1.0981,-1.0983,-1.0986,-1.0987,-1.0923,-1.0981,-1.0981,-1.0981,-1.0981,-1.098,0,-1.0533,-1.0556,-1.0591,-1.0635,-1.0665,-1.0668,-1.0703,-1.0729,-1.0767,-1.0799,-1.0832,-1.088,-1.092,-1.095,-1.0991,-1.1013,-1.1018,-1.1023,-1.1022,-1.1027,-1.0988,-1.0977,-1.1019,-1.1019,-1.1019,-1.1019,-1.1019,-1.1019,-1.0563,-1.0608,-1.0622,-1.0681,-1.0703,-1.0746,-1.0766,-1.0793,-1.0818,-1.0871,-1.0904,-1.0924,-1.0955,-1.0998,-1.1035,-1.1043,-1.1058,-1.1063,-1.1072,-1.1034,-1.103,-1.1026,-1.1016,-1.1066,-1.1066,-1.1109,-1.1109,-1.1109]},{"header":{"parameterUnit":"m.s-1","parameterCategory":1,"la1":30.2991,"la2":30.254,"lo1":-89.0895,"lo2":-89.0444,"dy":0.0017,"dx":0.0017,"nx":28,"ny":28,"refTime":"2024-02-06T09:00:00:Z","depth":0,"parameterNumber":3,"parameterNumberName":"V-component_of_WINDS"},"data":[0,0,0,0,0,0,0,0,0,0,0,0,0,0,0,0,0,0,0,0,0,0,0,0,0,0,0,0,0,0,0,0,0,0,0,0,0,0,0,0,0,0,0,0,0,0,0,0,0,0,0,0,0,0,0,0,0,0,-2.8118,-2.8119,0,-2.8155,-2.8155,-2.8156,-2.8127,-2.8125,-2.8124,-2.8123,-2.8157,-2.8159,-2.8161,0,0,0,0,0,0,0,0,0,0,0,0,0,-2.8021,-2.8023,-2.8118,-2.8119,-2.8119,-2.8155,-2.8155,-2.8156,-2.8127,-2.8125,-2.8124,-2.8123,-2.8157,-2.8159,-2.8162,0,0,0,0,0,0,0,0,0,0,0,0,0,-2.8061,-2.8024,-2.8118,-2.8109,-2.8109,-2.8155,-2.8155,-2.8156,-2.8127,-2.8125,-2.8124,-2.8122,-2.8156,-2.8159,-2.8162,-2.8218,0,0,-2.8171,-2.8173,0,0,0,0,0,0,0,0,-2.8059,-2.8065,-2.811,-2.811,-2.811,-2.8134,-2.8134,-2.8176,-2.8128,-2.812,-2.8123,-2.8121,-2.8151,-2.8154,-2.8165,-2.8219,-2.8221,-2.8172,-2.8173,-2.8175,-2.8176,0,0,0,0,0,0,0,-2.8056,-2.8063,-2.8133,-2.8111,-2.811,-2.8103,-2.8106,-2.8142,-2.8145,-2.8121,-2.8119,-2.8124,-2.815,-2.8162,-2.8166,-2.8221,-2.8171,-2.8174,-2.8176,-2.8177,-2.8323,-2.8325,0,0,0,0,0,0,-2.8055,-2.8061,-2.8131,-2.8134,-2.8079,-2.8106,-2.811,-2.8128,-2.8145,-2.8146,-2.8125,-2.8122,-2.8158,-2.8162,-2.8167,-2.8233,-2.8175,-2.8178,-2.8179,-2.8321,-2.8323,-2.8326,0,0,0,0,0,0,-2.8053,-2.8061,-2.813,-2.8097,-2.8105,-2.8109,-2.813,-2.813,-2.8142,-2.8148,-2.8148,-2.8137,-2.8157,-2.8162,-2.8205,-2.8234,-2.8179,-2.8182,-2.8318,-2.8322,-2.8324,-2.8367,0,0,0,0,0,0,-2.805,-2.8061,-2.8083,-2.8098,-2.8107,-2.8169,-2.8132,-2.8132,-2.8147,-2.8144,-2.8159,-2.816,-2.8156,-2.8201,-2.8209,-2.8237,-2.8184,-2.8316,-2.832,-2.8323,-2.8363,-2.8371,-2.8378,0,0,0,0,0,-2.8047,-2.8092,-2.8084,-2.8092,-2.8134,-2.8171,-2.8176,-2.8171,-2.815,-2.8171,-2.8176,-2.8159,-2.823,-2.8206,-2.8214,-2.8244,-2.8314,-2.8319,-2.8323,-2.8359,-2.8369,-2.8377,0,0,0,0,0,0,-2.8079,-2.8094,-2.8085,-2.8137,-2.8153,-2.8166,-2.8193,-2.8181,-2.8203,-2.8199,-2.8191,-2.8194,-2.824,-2.8246,-2.8219,-2.8299,-2.8268,-2.8275,-2.8293,-2.8302,-2.831,-2.8307,-2.8187,0,0,0,0,0,-2.8092,-2.8122,-2.8133,-2.8177,-2.8186,-2.8188,-2.8204,-2.8199,-2.8215,-2.8221,-2.8228,-2.8244,-2.8269,-2.8286,-2.831,-2.8364,-2.8366,-2.8388,-2.8396,-2.8402,-2.8407,-2.8436,-2.8446,-2.834,-2.834,-2.834,0,0,-2.812,-2.8132,-2.815,-2.8184,-2.8196,-2.8226,-2.8194,-2.8226,-2.8248,-2.8225,-2.8267,-2.8273,-2.8289,-2.8338,-2.836,-2.8345,-2.8437,-2.8408,-2.8412,-2.8415,-2.8442,-2.8452,-2.8461,-2.8344,-2.8343,-2.8342,0,0,-2.8185,-2.8197,-2.8236,-2.8249,-2.8268,-2.8269,-2.8278,-2.8293,-2.8297,-2.8339,-2.8322,-2.8348,-2.8392,-2.8405,-2.8417,-2.8488,-2.8474,-2.8496,-2.8535,-2.8563,-2.8571,-2.8579,-2.8604,-2.8613,-2.8501,-2.8502,-2.8502,0,-2.8216,-2.8261,-2.8257,-2.8291,-2.8306,-2.8289,-2.8327,-2.834,-2.8365,-2.8376,-2.8359,-2.8415,-2.8424,-2.8476,-2.8493,-2.8504,-2.8514,-2.8494,-2.8571,-2.8578,-2.8585,-2.8609,-2.8619,-2.8504,-2.8504,-2.8504,-2.8503,0,-2.8299,-2.8331,-2.8359,-2.8386,-2.8404,-2.8441,-2.8441,-2.846,-2.8454,-2.8457,-2.8499,-2.8511,-2.8537,-2.8549,-2.8542,-2.86,-2.859,-2.8572,-2.8541,-2.8598,-2.862,-2.8629,-2.8508,-2.8507,-2.8506,-2.8505,0,0,-2.8385,-2.8409,-2.842,-2.8432,-2.8452,-2.8476,-2.8511,-2.8538,-2.8555,-2.8573,-2.8602,-2.8641,-2.8625,-2.8639,-2.8633,-2.8658,-2.8714,-2.8637,-2.8638,-2.8651,-2.8778,-2.8792,-2.8802,-2.8705,-2.8707,-2.8708,-2.8777,0,-2.8451,-2.8514,-2.8511,-2.857,-2.8599,-2.8583,-2.8614,-2.8629,-2.8633,-2.8657,-2.8661,-2.8689,-2.8665,-2.8674,-2.8698,-2.8702,-2.874,-2.8697,-2.8732,-2.8733,-2.8728,-2.8814,-2.8828,-2.8892,-2.8786,-2.8787,-2.8788,0,-2.8536,-2.8559,-2.8621,-2.8638,-2.865,-2.8678,-2.8703,-2.8726,-2.8743,-2.8744,-2.8761,-2.8752,-2.8787,-2.8756,-2.8804,-2.8775,-2.8789,-2.8794,-2.8796,-2.8799,-2.8764,-2.8819,-2.8913,-2.8922,-2.8802,-2.8801,-2.88,0,-2.8593,-2.8639,-2.8682,-2.8693,-2.8713,-2.8733,-2.8743,-2.8758,-2.8774,-2.8796,-2.8806,-2.8831,-2.8844,-2.8863,-2.8861,-2.8838,-2.891,-2.8879,-2.8912,-2.8912,-2.8927,-2.8926,-2.9024,-2.8936,-2.8936,-2.8936,-2.8936,0,-2.8667,-2.8706,-2.8708,-2.8735,-2.8777,-2.8774,-2.8816,-2.8822,-2.8836,-2.8863,-2.8851,-2.8876,-2.8872,-2.8897,-2.8895,-2.8936,-2.8942,-2.8943,-2.8942,-2.8944,-2.8944,-2.8953,-2.8948,-2.8938,-2.8938,-2.8937,-2.8937,0,-2.8737,-2.874,-2.8786,-2.8803,-2.8808,-2.8838,-2.8852,-2.8876,-2.888,-2.8914,-2.8922,-2.8927,-2.8956,-2.8956,-2.8988,-2.8987,-2.9037,-2.9031,-2.9032,-2.903,-2.9064,-2.906,-2.9171,-2.9185,-2.9088,-2.9089,-2.9089,0,-2.8784,-2.8814,-2.8834,-2.8852,-2.8863,-2.8891,-2.8909,-2.8906,-2.8924,-2.8947,-2.8969,-2.8997,-2.902,-2.9067,-2.9073,-2.9098,-2.9092,-2.9129,-2.9096,-2.9097,-2.9093,-2.9091,-2.9094,-2.9135,-2.9137,-2.9137,-2.9138,0,-2.8867,-2.8868,-2.8894,-2.8921,-2.8942,-2.8963,-2.8982,-2.8997,-2.8997,-2.9018,-2.9049,-2.9066,-2.9101,-2.9129,-2.9153,-2.9162,-2.915,-2.9149,-2.9158,-2.916,-2.916,-2.9161,-2.905,-2.9146,-2.9145,-2.9145,-2.9144,-2.9144,-2.8927,-2.8953,-2.8972,-2.9001,-2.9016,-2.9034,-2.9059,-2.9066,-2.9092,-2.912,-2.9117,-2.9151,-2.9167,-2.9199,-2.921,-2.9236,-2.9223,-2.9236,-2.9239,-2.9242,-2.9246,-2.9156,-2.924,-2.924,-2.924,-2.924,-2.924,0,-2.901,-2.9022,-2.9049,-2.9077,-2.91,-2.9089,-2.9109,-2.9129,-2.916,-2.9177,-2.92,-2.9235,-2.9263,-2.9271,-2.9298,-2.9317,-2.9312,-2.9324,-2.9322,-2.9324,-2.9256,-2.9246,-2.9327,-2.9327,-2.9327,-2.9327,-2.9327,-2.9327,-2.9056,-2.9099,-2.9102,-2.9152,-2.9163,-2.9198,-2.9211,-2.9227,-2.9241,-2.9281,-2.9305,-2.9311,-2.9324,-2.9352,-2.9376,-2.9378,-2.9388,-2.9402,-2.9402,-2.9338,-2.9329,-2.9321,-2.9311,-2.9405,-2.9405,-2.9468,-2.9468,-2.9469]}]]